Regional Weather Roundup
Issued by NWS

Home | Current Version | Previous Version | Text Only | Print | Product List | Glossary Off
Versions: 1 2 3 4 5 6 7 8 9 10 11 12 13 14 15 16 17 18 19 20 21 22 23 24 25 26 27 28 29 30 31 32 33 34 35 36 37 38 39 40 41 42 43 44 45 46 47 48 49 50

000
ASUS44 KMEG 242310
RWRTN
TENNESSEE HOURLY STATE WEATHER ROUNDUP
NATIONAL WEATHER SERVICE MEMPHIS TN
600 PM CDT MON APR 24 2017

TNZ002-004-019-021-049-052-054-088>092-250000-
WEST TENNESSEE

CITY           SKY/WX    TMP DP  RH WIND       PRES   REMARKS
MEMPHIS INTL   MOSUNNY   73  54  51 NE8       29.75F
NWS MEMPHIS      N/A     72 N/A N/A MISG        N/A
JACKSON        MOSUNNY   70  57  63 E5        29.77F
DYERSBURG      MOSUNNY   74  54  49 VRB5      29.75F
SOMERVILLE     MOSUNNY   70  55  60 CALM      29.75F
UNION CITY     PTSUNNY   73  54  49 SE6       29.74F
BOLIVAR        CLOUDY    66  55  68 NE5       29.78S
PARIS          CLOUDY    68  54  60 SE3       29.77F
HUNTINGDON     CLOUDY    70  55  60 SE6       29.76S
LEXINGTON      MOSUNNY   66  55  68 VRB3      29.79S
SAVANNAH       CLOUDY    63  55  77 SE3       29.80S
$$

TNZ008-025-027-028-033-062-065-066-250000-
NORTH MIDDLE TENNESSEE

CITY           SKY/WX    TMP DP  RH WIND       PRES   REMARKS
NASHVILLE      CLOUDY    68  55  63 NE5       29.78F
PORTLAND       MOSUNNY   68  55  64 CALM      29.77F
CLARKSVILLE    CLOUDY    68  53  58 S3        29.77F
SMYRNA         CLOUDY    66  55  67 CALM      29.79F
COOKEVILLE     CLOUDY    64  55  72 VRB3      29.76F
GALLATIN       CLOUDY    66  55  68 CALM      29.80F
CROSSVILLE     CLOUDY    63  54  72 NW7       29.78F
$$

TNZ061-075-076-078-094-096-097-250000-
SOUTH MIDDLE TENNESSEE

CITY           SKY/WX    TMP DP  RH WIND       PRES   REMARKS
FAYETTEVILLE   CLOUDY    61  55  82 CALM      29.78F
TULLAHOMA      CLOUDY    61  54  77 N3        29.80F
WINCHESTER     CLOUDY    61  54  77 N3        29.79F
MCMINNVILLE    CLOUDY    63  57  82 VRB3      29.79F
COLUMBIA       CLOUDY    63  63 100 VRB3      29.78F
SHELBYVILLE    CLOUDY    63  59  88 CALM      29.79F
$$

TNZ017-018-042-046-047-250000-
NORTHEAST TENNESSEE

CITY           SKY/WX    TMP DP  RH WIND       PRES   REMARKS
TRI CITIES     CLOUDY    58  51  78 NE5       29.81S
ELIZABETHTON   CLOUDY    59  54  82 SE5       29.79F
$$

TNZ012-013-036-069-073-074-250000-
CENTRAL EAST TENNESSEE

CITY           SKY/WX    TMP DP  RH WIND       PRES   REMARKS
KNOXVILLE      CLOUDY    66  54  65 NE13      29.73F
OAK RIDGE      CLOUDY    70  53  54 E8        29.74F
DOWNTOWN KNOXV CLOUDY    68  55  64 E8        29.75S
GATLINBURG     CLOUDY    63  54  72 E5        29.76S
MORRISTOWN     CLOUDY    64  54  68 E6G13     29.77S
JACKSBORO      CLOUDY    68  55  64 NE8       29.77F
$$

TNZ083-085-099-250000-
SOUTHEAST TENNESSEE

CITY           SKY/WX    TMP DP  RH WIND       PRES   REMARKS
CHATTANOOGA    PTSUNNY   66  56  70 CALM      29.75S
$$

SKY/WX REPORTED AS FAIR MEANS FEW OR NO CLOUDS BELOW
12 THOUSAND FEET.




USA.gov is the U.S. government's official web portal to all federal, state and local government web resources and services.